RH
50 46 38 35 34 29 24 22 21 20 20 21 21 19 20 21 17 11 10 9 7 6 6 7 10 8 8 15 21 20 13 8 7 7 7 7 8 8 8 8 7 4 4 13 18 10 4 7 9 9 10 10 12 15 17 19 19 20 21 21 20 20 20
55 45 31 27 30 27 23 22 26 29 29 30 31 33 35 31 22 18 15 11 9 8 8 8 9 12 16 21 19 17 15 12 8 8 9 8 9 9 8 7 4 2 10 18 16 7 5 8 9 9 10 11 14 16 18 19 20 21 21 21 21 21 21
54 43 27 22 27 27 20 17 23 31 35 39 42 42 39 28 23 24 21 16 13 12 14 14 12 12 16 14 9 9 12 10 7 7 8 8 8 7 6 3 1 7 16 17 11 7 8 9 9 10 11 13 15 17 19 20 21 22 22 22 23 22 22
52 47 35 31 35 33 24 17 24 35 42 48 49 44 37 27 22 25 26 20 15 17 20 19 14 10 8 5 4 7 9 8 7 6 6 6 6 4 2 1 7 17 19 13 8 8 10 10 11 12 13 14 16 18 20 21 21 22 22 23 24 24 24
48 45 39 38 38 32 22 18 26 36 37 38 37 34 33 27 21 27 31 21 16 24 22 14 14 14 11 9 5 6 8 7 7 7 7 7 5 4 3 6 14 21 18 12 8 9 10 11 12 13 14 15 17 19 20 21 22 22 23 23 24 25 24
45 41 36 35 32 24 18 14 12 15 21 28 33 35 34 30 24 25 26 17 15 21 17 16 26 23 12 9 8 8 11 12 14 17 14 12 11 12 13 15 20 22 19 14 11 10 11 12 13 13 14 15 18 20 20 21 22 22 23 24 24 25 24
44 43 39 33 26 18 18 22 14 7 14 24 33 40 38 33 25 19 17 15 12 11 10 22 40 35 16 10 10 12 18 25 32 31 21 13 13 19 23 23 23 23 21 17 13 12 12 13 14 14 15 17 18 20 20 21 22 23 24 24 24 24 24
47 51 48 37 27 17 18 28 25 17 19 26 35 39 33 24 20 16 14 14 12 13 15 19 28 27 15 11 12 13 22 38 47 44 30 15 12 18 23 22 22 22 23 21 15 13 13 14 15 16 15 17 19 20 21 21 22 23 24 25 24 24 24
57 59 55 45 34 24 19 21 20 16 19 29 38 40 33 26 23 23 24 24 24 26 27 25 25 23 17 14 14 14 26 45 55 58 53 32 13 13 16 16 20 25 28 28 21 15 14 14 16 16 16 18 19 20 21 21 22 24 24 25 25 25 25
61 56 53 50 44 37 29 23 22 21 20 25 31 35 36 33 30 30 31 33 34 32 32 31 31 30 26 21 16 15 29 52 61 62 63 45 18 11 17 19 20 24 28 32 28 19 15 15 15 17 17 18 20 21 22 22 22 24 25 26 26 26 26
49 45 46 48 49 47 40 33 30 28 27 28 30 33 35 35 33 29 25 25 27 30 34 35 32 32 30 25 20 16 24 49 64 57 52 48 27 12 19 21 14 16 21 25 25 19 15 15 16 17 18 18 21 21 21 23 24 26 27 26 27 26 26
39 43 45 46 52 54 47 40 33 29 29 30 31 32 33 35 36 29 21 18 17 21 27 30 31 31 30 28 24 18 18 38 63 57 38 35 22 15 35 38 19 13 16 17 18 16 15 17 17 17 18 18 20 21 21 24 26 28 28 27 27 26 26
43 52 51 49 58 58 47 40 38 38 38 36 36 37 36 37 37 32 28 23 20 20 19 21 24 25 31 33 26 22 23 36 58 51 27 20 16 26 57 58 27 15 15 13 15 15 15 18 18 18 19 19 20 21 22 26 29 31 30 27 27 26 26
52 62 57 51 54 52 47 48 50 48 44 41 40 40 38 34 29 26 25 24 24 23 18 18 19 20 31 38 31 25 27 41 61 56 38 30 17 22 51 50 24 16 16 14 15 16 17 19 19 19 19 19 21 23 26 29 31 32 30 28 28 28 28
58 62 59 53 49 50 54 56 54 49 45 42 39 38 37 33 25 18 17 19 22 23 21 19 18 19 29 38 39 31 23 36 54 51 45 42 27 29 48 42 22 18 16 15 17 18 19 20 19 20 21 22 25 27 29 31 33 34 33 30 30 30 30
58 59 58 56 53 56 57 51 44 42 40 37 32 31 30 26 21 19 18 19 21 22 22 19 17 20 23 26 33 32 23 29 38 35 40 46 42 46 47 32 24 24 19 18 20 19 20 20 21 25 26 27 29 29 31 34 36 37 35 33 32 32 30
55 53 56 59 59 60 58 48 40 37 34 31 27 25 22 17 18 19 18 20 22 22 22 20 16 17 19 24 32 32 27 25 25 36 50 43 34 40 39 30 32 32 23 21 22 20 21 23 26 31 32 32 33 33 36 39 39 38 36 34 34 32 31
53 53 58 62 61 60 59 57 54 50 45 35 25 21 20 17 17 15 14 15 16 19 21 19 20 26 33 44 54 56 49 34 26 44 56 35 22 35 42 38 37 32 25 24 24 24 26 30 34 37 37 37 38 39 42 42 40 39 37 35 34 32 31
57 59 61 63 63 62 63 65 65 62 58 46 31 23 21 19 17 14 11 10 10 16 20 21 28 35 34 38 46 48 46 40 43 59 63 44 35 44 47 42 38 33 28 25 26 28 31 36 40 40 39 39 41 44 46 45 42 41 39 35 33 32 30
63 64 66 70 70 65 63 65 63 59 57 52 40 30 24 20 18 14 11 9 9 14 18 19 22 24 23 22 19 18 32 52 64 71 73 67 57 49 44 40 37 33 28 26 28 29 34 40 43 41 40 39 44 53 56 51 43 38 36 33 29 28 27
65 68 74 76 73 67 62 60 58 57 59 56 46 35 27 21 17 14 14 14 13 14 21 22 22 26 31 27 18 26 56 79 80 79 85 82 64 45 37 36 35 32 29 28 28 30 37 43 44 44 41 44 61 76 73 56 39 31 30 28 23 21 21
71 75 80 77 72 69 63 57 57 60 59 54 45 36 27 21 19 19 21 20 19 27 38 40 43 52 56 51 47 60 79 83 77 84 93 81 57 40 33 34 35 32 31 31 32 36 42 43 47 53 50 53 71 79 66 47 33 27 25 21 17 14 15
76 78 79 77 72 69 66 63 65 63 54 47 41 33 23 18 17 20 23 21 20 27 31 33 48 65 72 77 83 88 93 90 83 86 86 70 50 39 36 36 35 32 32 35 38 43 46 46 52 57 53 51 55 54 51 46 33 23 19 14 9 8 10
80 80 80 79 76 72 66 62 62 60 52 44 37 28 20 17 13 13 18 20 20 20 17 25 51 66 66 76 88 87 88 92 87 82 77 62 48 43 40 37 34 32 34 39 44 47 48 49 52 53 51 50 46 43 51 52 33 18 14 8 4 4 6
82 80 79 78 75 67 57 54 56 56 51 44 36 30 24 18 13 10 12 16 19 19 17 31 58 71 67 72 81 78 76 80 81 79 71 57 49 48 44 39 39 39 39 44 49 49 51 54 57 55 53 53 45 37 40 38 24 15 12 6 3 4 3
76 76 75 73 70 62 53 53 57 55 51 45 37 31 25 19 16 14 13 15 20 22 22 31 50 65 64 60 61 64 67 72 78 75 63 54 54 53 51 49 48 44 43 49 53 54 57 62 63 59 52 45 39 32 28 24 17 12 8 5 4 4 3
74 75 73 68 64 58 54 54 54 50 47 43 36 32 28 23 20 18 16 17 22 26 29 30 34 42 46 45 50 62 67 67 71 69 59 55 59 59 57 55 49 46 51 57 58 59 61 64 69 70 57 39 31 27 21 16 12 8 6 6 6 4 5
71 72 70 63 56 52 52 52 49 44 40 36 32 30 28 24 22 21 18 18 22 26 29 30 28 28 32 37 50 69 74 68 69 71 64 59 60 59 55 51 49 54 61 60 58 59 62 67 74 71 53 33 25 21 15 11 10 8 6 7 7 7 8
71 71 67 62 56 54 53 50 47 42 37 33 30 27 26 25 22 20 18 17 21 24 26 30 31 26 25 38 62 84 87 76 74 78 72 62 58 55 54 55 60 66 66 58 54 60 66 71 69 56 38 26 20 16 12 10 10 9 8 10 11 11 11
74 73 70 67 63 60 55 50 46 42 37 33 31 29 26 23 19 18 18 16 17 21 23 28 31 26 29 52 81 91 83 73 77 84 74 61 58 60 62 66 69 71 66 57 58 69 74 68 55 39 26 20 16 13 12 13 15 13 12 15 17 15 14
80 77 74 69 62 55 49 45 44 42 38 34 32 29 26 22 19 17 17 17 18 24 30 34 36 36 44 65 80 78 72 75 86 88 75 63 66 71 72 75 78 79 73 66 69 75 66 49 36 27 20 16 14 13 14 17 19 18 17 23 25 22 21
84 79 70 60 52 45 42 40 38 38 36 32 29 26 22 19 16 13 23 41 52 55 57 57 57 56 58 67 75 79 84 90 94 93 84 76 78 82 85 89 91 86 76 68 66 60 44 31 27 22 17 14 14 15 17 20 22 21 24 31 31 26 26
82 72 59 49 42 38 36 35 33 32 30 25 22 19 15 16 16 18 33 57 73 80 78 72 71 75 75 74 80 89 95 97 98 98 95 90 90 93 96 97 91 81 71 61 52 41 29 24 22 17 14 15 15 18 23 25 24 23 26 29 25 21 22
72 61 51 43 36 31 28 28 27 25 22 17 16 15 14 16 20 24 31 39 55 77 83 71 68 78 81 81 89 98 100 100 101 101 99 97 98 98 97 91 79 67 57 46 36 28 23 19 16 14 15 16 18 26 31 29 26 25 24 21 17 16 18
65 53 44 38 33 28 25 23 22 20 18 17 17 18 18 18 20 23 27 31 44 68 80 76 77 84 84 86 95 101 100 100 101 101 100 100 98 94 88 78 63 50 41 32 26 21 17 14 13 13 14 19 26 34 34 29 26 27 24 18 15 16 19
52 42 37 35 32 29 27 25 24 23 24 24 24 24 23 22 21 20 25 36 48 60 72 83 91 91 91 96 100 99 98 100 100 100 101 97 89 82 75 63 51 41 33 25 20 16 12 11 11 11 16 25 32 33 31 28 29 28 22 17 18 21 23
43 40 36 31 29 28 29 31 32 32 32 31 29 28 24 22 25 31 40 52 58 59 70 88 98 97 96 99 100 97 96 96 93 94 95 88 77 70 64 56 47 38 27 19 15 12 10 10 9 11 19 29 31 30 30 30 28 25 21 21 25 27 26
40 41 37 34 32 32 33 36 38 39 39 35 31 29 26 27 35 45 52 58 58 56 62 78 91 94 94 95 97 96 93 91 91 92 89 81 71 63 57 51 42 32 22 16 13 11 9 9 8 13 25 31 30 31 32 28 23 22 24 28 30 29 26
Wind_Speed
18 15 12 11 11 12 15 17 17 17 15 13 13 15 17 18 18 18 19 21 22 22 22 22 23 23 23 21 21 21 21 20 20 21 23 24 25 25 26 27 27 27 27 27 27 27 26 24 23 23 23 24 25 26 28 30 31 32 32 32 33 33 33
16 14 10 8 10 12 15 16 17 16 14 14 13 14 16 17 16 16 17 19 21 21 21 20 20 20 20 20 20 21 21 21 20 21 22 23 25 25 26 27 27 26 25 25 26 26 25 24 23 24 24 24 26 27 29 30 31 32 32 33 33 33 34
18 15 11 6 5 8 11 13 15 16 14 14 13 13 15 15 15 16 16 18 20 20 20 19 18 18 19 20 21 21 21 21 21 21 22 23 24 25 27 27 27 25 23 24 25 24 23 22 23 24 25 25 26 28 29 31 32 32 33 33 33 34 34
20 19 16 12 11 10 9 9 12 13 13 13 13 14 14 14 15 16 17 18 19 20 21 20 19 19 19 20 21 22 22 22 21 21 22 23 24 24 26 27 25 23 22 23 23 23 22 22 22 24 25 26 27 28 30 32 33 34 34 34 34 34 34
22 22 19 16 16 14 10 8 9 10 12 13 14 14 13 14 15 16 17 18 19 21 22 21 20 20 21 22 23 23 23 22 21 21 22 23 24 25 25 25 24 22 22 22 22 23 23 22 23 24 26 26 27 28 30 32 33 34 35 35 35 35 36
23 21 18 17 16 14 10 8 10 12 14 15 15 14 13 14 14 15 17 19 20 21 22 22 22 23 23 23 24 24 24 23 21 21 22 23 24 24 24 24 23 22 22 22 22 23 24 24 25 26 27 28 28 28 30 32 34 35 37 37 37 36 36
23 22 20 18 16 13 10 8 9 12 14 15 14 13 13 13 14 15 17 19 21 23 22 22 24 26 25 25 24 25 26 25 24 23 22 23 24 24 24 24 23 22 21 22 23 24 25 27 27 28 29 29 29 30 32 34 35 36 38 39 39 39 38
20 22 22 21 19 15 10 8 9 10 12 13 12 12 12 13 15 16 18 20 22 23 23 24 25 27 28 27 26 26 27 27 25 23 22 24 25 25 24 24 24 22 22 22 23 25 27 28 29 30 30 30 30 31 33 34 35 37 39 40 41 42 42
20 22 23 22 21 18 14 11 11 12 12 12 12 13 14 15 17 18 19 21 23 24 25 27 27 28 28 28 27 27 28 28 27 25 25 26 27 27 26 25 24 23 23 23 24 26 28 29 30 31 32 32 32 32 33 35 37 39 41 42 43 43 43
23 23 22 21 22 21 18 14 13 14 15 15 15 16 17 18 19 20 22 23 24 26 28 30 29 29 29 29 28 27 28 29 29 29 29 29 29 29 27 25 23 23 24 25 26 28 30 31 32 32 33 33 33 33 35 36 38 40 41 42 43 44 44
23 23 23 23 24 24 20 17 17 17 17 18 18 19 20 21 22 22 23 25 27 29 30 31 31 30 30 30 29 29 29 28 29 32 32 31 31 31 28 25 25 25 26 27 29 30 32 33 33 33 33 34 34 35 37 38 39 40 41 42 43 44 44
22 22 23 23 25 24 20 19 20 22 22 21 21 22 23 23 24 25 26 27 28 30 32 33 33 32 32 32 31 31 30 28 29 33 33 31 32 32 30 28 27 28 28 30 31 33 34 34 33 33 34 35 36 38 39 39 40 41 43 43 44 44 45
24 24 23 22 23 22 20 21 24 25 24 24 24 25 25 26 28 29 29 30 31 32 34 35 35 35 34 33 32 32 32 31 32 33 32 31 32 31 31 31 30 30 31 32 33 34 35 35 34 35 36 37 39 40 41 41 41 43 44 44 45 46 47
30 28 27 26 25 24 24 28 30 28 26 25 25 26 27 30 32 32 32 33 34 34 34 36 37 37 36 35 33 33 34 32 32 32 30 31 32 33 33 33 31 31 33 34 35 36 36 36 36 38 39 39 40 41 42 42 42 44 45 46 47 48 47
34 33 32 30 28 28 31 33 32 29 28 28 28 29 30 33 34 35 35 34 35 34 34 36 37 38 38 37 36 36 35 32 31 33 32 31 33 35 36 34 32 33 34 35 36 36 37 38 39 40 41 40 40 41 41 42 44 45 46 47 49 49 48
36 36 35 33 31 31 32 32 31 31 31 33 33 34 35 35 34 34 35 35 35 35 35 36 38 39 40 40 39 39 38 34 32 32 32 32 34 37 38 35 32 34 36 36 36 37 38 39 40 41 41 41 40 40 41 43 45 46 47 48 49 49 49
37 38 37 35 34 32 30 29 31 33 34 37 39 39 39 38 36 35 35 35 35 34 35 37 38 39 40 41 41 40 38 35 33 31 30 31 36 39 39 35 33 35 37 37 36 38 39 40 41 42 41 41 41 41 43 45 46 47 48 49 50 50 49
38 39 38 37 37 35 32 33 36 38 39 41 42 42 42 42 41 39 38 37 36 34 34 35 36 38 39 38 40 41 39 36 34 31 31 33 37 38 35 34 34 36 37 37 37 38 40 41 42 42 41 41 42 43 45 46 47 47 48 49 49 50 49
39 39 38 38 39 38 39 42 44 44 45 45 44 44 44 45 44 43 42 42 39 35 33 34 35 37 38 39 40 40 38 37 35 32 32 34 35 34 33 33 34 36 38 38 38 39 41 41 42 42 41 41 43 45 46 45 46 46 47 48 49 49 49
39 40 38 37 39 41 43 45 46 47 48 48 47 47 47 46 45 45 45 44 41 37 36 37 38 39 40 40 40 38 36 37 37 35 34 34 34 33 33 34 35 37 38 38 38 39 40 42 43 41 40 44 47 46 42 41 44 45 46 48 48 48 48
40 40 38 37 40 44 46 46 47 49 52 50 49 49 48 46 45 45 44 42 40 39 39 39 40 40 40 39 39 38 36 36 37 37 34 32 33 34 34 35 35 37 38 38 39 39 39 42 42 40 41 46 45 40 39 43 46 47 47 48 48 47 46
39 39 39 41 45 49 50 50 49 52 53 51 49 48 46 44 43 41 39 38 38 38 38 39 40 42 43 41 39 37 34 33 36 36 33 32 34 36 36 35 35 36 38 39 38 37 38 42 42 39 41 42 39 40 47 51 50 49 49 49 48 46 45
41 43 44 47 49 51 52 52 53 53 51 48 45 44 42 41 41 40 39 39 38 36 36 39 40 41 41 39 35 33 32 32 33 34 34 35 37 37 36 36 35 36 38 38 37 36 39 42 42 41 43 43 43 47 51 51 50 51 51 50 48 47 46
44 46 47 47 50 53 54 54 52 49 45 42 40 40 41 41 41 41 42 41 39 37 38 39 39 39 37 35 32 31 31 32 33 34 36 38 38 36 36 35 34 36 37 37 36 37 41 43 43 44 46 46 48 50 49 49 53 54 52 51 50 48 47
46 47 48 49 51 53 52 49 46 42 39 39 39 39 40 41 41 42 42 40 39 38 37 36 36 36 34 33 34 34 32 34 36 37 39 39 37 35 34 34 35 36 37 36 37 40 43 44 44 46 48 48 49 50 51 53 55 55 53 52 50 49 48
47 47 49 51 52 51 47 43 40 38 38 39 39 39 40 40 40 40 40 41 39 35 34 32 31 30 31 34 38 39 37 37 38 38 39 39 37 34 34 34 36 37 37 38 39 41 43 44 45 47 49 49 50 50 52 54 55 54 53 51 50 49 49
45 45 48 51 52 50 46 41 39 38 39 39 39 39 40 40 40 40 41 42 39 34 33 32 30 29 32 35 39 41 40 39 38 38 40 40 36 34 34 36 37 37 37 39 41 42 43 44 45 47 49 50 50 51 52 53 54 53 52 50 50 49 48
47 48 51 52 51 50 47 44 41 40 39 38 38 38 39 41 42 41 40 40 38 35 34 34 33 32 34 37 41 44 43 40 38 40 43 40 35 34 36 37 37 35 36 40 42 44 44 45 45 47 50 51 50 51 53 53 53 52 50 49 48 47 46
51 53 53 50 48 47 47 46 44 43 41 40 38 38 39 40 42 41 40 38 38 38 36 35 33 33 35 39 40 40 39 39 39 41 42 38 35 36 37 37 36 36 39 42 44 44 45 46 48 49 50 51 51 52 53 53 52 51 49 47 46 44 44
51 51 48 44 43 44 45 46 46 45 43 41 39 38 38 39 40 40 40 39 39 40 39 36 34 34 36 36 35 35 37 41 41 41 39 36 35 37 36 36 37 40 42 45 46 46 47 49 50 50 50 50 51 52 53 52 51 49 47 45 43 42 41
45 43 41 41 43 44 45 45 44 43 41 40 39 38 37 37 38 38 39 40 42 41 39 37 36 35 34 33 37 39 42 41 39 38 37 35 34 34 35 36 39 41 44 47 48 48 49 50 50 50 50 51 51 52 52 51 49 47 45 43 41 41 40
41 40 40 40 41 42 42 42 41 39 37 37 37 37 37 37 37 37 37 37 38 37 35 35 35 34 32 33 38 40 38 37 39 39 37 34 33 33 35 36 37 41 46 48 48 48 49 50 49 49 50 51 51 51 51 49 47 45 43 41 40 40 40
41 40 39 37 37 37 39 40 40 38 37 36 36 36 36 35 35 34 33 31 31 33 36 38 38 37 36 36 38 39 39 40 42 41 36 33 33 35 36 36 39 44 47 47 47 48 48 48 48 49 49 50 51 50 49 47 46 44 42 41 40 40 40
40 40 37 36 35 36 37 38 39 38 37 36 35 35 34 34 33 33 32 32 32 35 41 43 41 41 42 43 43 44 46 45 41 36 33 33 34 36 38 40 42 45 46 46 47 47 47 47 48 48 49 49 50 49 47 46 45 43 41 40 39 39 39
39 37 35 34 34 34 35 36 36 36 35 34 34 33 34 34 35 34 35 35 34 36 41 44 43 42 44 47 47 46 45 41 34 31 31 33 36 39 40 42 43 45 45 46 46 46 46 47 48 48 48 49 47 46 45 45 43 40 38 38 37 37 37
33 31 31 32 33 33 34 34 34 33 33 33 33 33 34 36 36 37 37 37 36 36 39 43 44 45 46 46 43 38 34 30 28 30 36 40 42 42 43 43 44 45 45 46 47 47 48 48 48 48 48 46 45 45 45 44 41 38 36 36 35 35 35
30 30 31 32 32 33 33 33 33 33 33 33 34 35 36 37 37 37 36 36 37 37 36 39 41 43 40 37 34 33 33 34 36 41 48 49 46 44 45 45 45 46 46 47 48 49 49 49 48 48 46 44 44 45 44 41 37 35 34 34 33 33 34
32 33 33 33 33 33 33 34 34 34 34 35 36 37 38 38 38 37 37 38 40 39 37 38 39 40 41 43 45 44 45 47 48 50 51 49 46 46 46 46 47 48 48 49 50 50 50 49 48 47 45 43 43 43 41 38 35 34 33 33 32 32 32
Wind_Direction
313 307 293 263 246 249 253 252 252 252 254 256 260 265 267 270 275 278 281 282 283 284 284 286 287 287 288 287 288 291 293 293 289 284 284 285 286 288 290 291 294 298 301 304 305 307 307 308 310 309 308 308 307 308 310 312 314 314 314 314 314 314 313
309 309 309 271 246 251 254 253 250 249 251 255 260 264 265 270 276 279 281 282 285 287 288 292 294 292 289 288 290 291 291 290 289 286 284 284 285 287 289 290 293 297 300 303 305 305 307 309 311 310 309 308 309 310 311 312 313 314 314 314 314 314 313
299 303 319 317 283 269 260 255 252 247 246 251 256 258 262 269 276 279 280 283 286 288 291 296 297 294 291 291 291 289 287 287 287 287 286 284 284 285 287 289 292 296 300 303 304 304 307 311 311 309 308 308 309 310 310 312 313 314 314 314 314 315 315
297 300 310 317 312 302 280 259 253 251 247 246 251 257 263 271 278 280 280 282 287 289 291 294 294 294 295 295 292 288 286 286 287 288 287 285 284 284 286 289 291 294 297 302 304 305 309 313 311 307 305 305 306 307 309 311 313 313 313 314 314 315 316
298 305 315 319 310 304 296 267 249 253 256 256 261 265 268 273 279 279 277 281 287 288 290 291 290 292 295 295 291 287 286 287 288 289 288 287 287 286 286 288 289 290 295 301 307 309 312 312 308 304 302 302 303 306 308 311 312 312 313 313 314 315 316
304 312 324 327 313 303 298 277 253 251 253 255 261 266 269 273 278 279 278 281 286 288 291 291 289 289 291 291 290 289 286 285 286 288 289 289 289 287 285 286 288 290 296 304 309 312 311 309 306 303 302 301 302 304 307 309 311 312 312 312 313 314 316
312 320 331 332 318 303 293 275 260 257 255 255 260 265 271 277 280 281 283 285 287 290 292 290 287 288 290 291 292 291 287 283 282 283 288 291 291 288 286 287 290 294 299 305 310 312 310 308 306 304 302 300 301 303 306 308 310 311 311 311 312 314 315
318 322 326 327 318 309 297 273 268 273 271 268 267 268 273 280 283 285 288 290 291 291 290 287 285 287 291 293 293 291 288 286 283 283 289 294 294 291 288 290 295 299 301 304 309 310 308 307 305 303 300 298 299 302 305 307 309 310 311 312 313 314 315
318 316 316 318 316 312 306 291 288 292 288 280 273 273 280 288 292 293 294 295 296 294 291 288 287 288 292 294 292 290 288 286 287 288 291 295 297 296 293 294 299 301 300 301 305 308 307 305 304 302 299 297 298 301 304 307 310 311 312 313 314 315 316
308 306 305 307 309 309 308 306 308 305 298 292 287 287 291 296 301 303 302 301 299 296 292 289 289 290 292 292 291 288 284 283 286 289 292 295 298 297 296 297 301 301 300 300 302 304 305 304 303 301 299 298 299 302 305 309 311 312 314 315 316 317 317
299 305 303 301 303 303 303 304 308 309 304 296 292 292 295 299 303 307 308 305 302 298 294 291 291 291 291 291 289 287 283 282 285 287 290 295 297 296 295 296 300 302 301 299 300 302 304 303 302 301 301 301 302 304 307 310 313 314 316 317 317 317 317
302 312 312 310 307 302 298 297 301 305 305 302 299 296 297 299 301 304 306 305 304 300 294 292 292 292 290 288 286 285 283 281 281 283 289 295 296 296 295 295 299 302 300 299 299 301 302 301 302 303 303 303 305 307 310 312 315 317 317 317 317 317 318
308 314 316 318 312 302 300 306 308 308 307 306 306 303 302 302 301 301 301 301 302 300 294 291 291 289 287 285 283 283 282 280 278 282 291 297 296 295 293 292 298 302 300 299 300 301 302 302 304 305 304 305 307 310 312 313 316 317 317 317 317 318 320
307 306 306 312 311 304 304 308 309 305 302 299 297 297 299 302 303 303 301 300 299 298 294 291 289 287 284 281 281 281 282 279 276 280 292 297 295 293 289 289 298 303 301 300 301 302 304 305 306 307 306 307 308 310 312 314 316 317 318 318 318 320 321
302 299 299 304 308 305 301 302 301 298 297 296 294 295 297 300 303 303 301 299 298 296 294 291 288 285 282 280 280 282 284 280 275 278 286 291 293 292 287 288 298 303 302 303 304 305 305 306 307 308 307 307 308 310 312 315 316 316 317 319 319 320 321
295 295 298 302 306 303 296 295 298 299 301 302 301 301 300 300 301 300 298 297 296 295 293 289 286 283 281 281 281 281 282 280 276 279 284 288 292 289 285 287 295 302 304 305 305 306 306 307 307 307 307 308 309 311 313 315 316 316 317 318 318 319 321
291 294 297 299 304 304 296 295 300 302 304 306 304 302 301 300 299 298 296 296 295 294 291 288 286 283 281 282 280 277 278 279 279 281 285 290 290 287 283 285 292 300 305 305 305 306 307 306 306 306 308 310 311 313 314 316 317 317 317 317 318 319 320
291 293 294 296 301 303 301 301 303 302 302 301 300 300 301 300 299 298 297 296 295 293 291 288 286 283 282 281 275 271 275 280 280 282 287 290 289 287 284 283 289 298 303 303 304 306 306 305 306 307 309 312 313 315 316 316 317 317 317 317 319 319 319
290 290 291 294 297 300 300 299 298 298 299 297 297 300 300 299 298 297 296 295 295 295 292 288 286 283 282 280 273 271 276 280 278 279 285 287 286 287 286 285 289 297 301 302 303 304 305 305 306 308 309 312 314 314 314 315 316 317 318 319 320 319 318
285 287 288 290 292 295 297 295 292 295 298 297 297 298 297 296 295 294 294 294 296 296 293 290 289 286 282 280 278 278 280 277 272 273 278 282 285 289 291 289 291 296 300 301 302 302 303 304 305 307 310 314 315 312 312 316 318 319 318 318 319 318 316
281 283 282 282 286 290 291 290 288 293 297 295 294 294 292 291 292 292 294 296 297 296 293 293 292 286 281 282 284 284 278 272 270 270 271 277 285 291 292 291 292 296 299 300 299 299 302 304 305 307 312 316 317 314 314 320 321 319 317 317 317 316 315
276 274 273 277 283 285 286 286 287 291 294 292 290 290 290 291 293 294 295 296 297 298 298 300 297 287 281 282 284 281 273 271 274 271 270 279 289 292 291 290 292 296 298 298 296 298 304 306 306 307 311 315 315 311 312 316 318 318 317 317 317 316 315
268 269 272 277 281 283 284 286 287 290 290 288 288 289 290 291 292 293 293 294 297 300 302 302 298 289 282 276 276 276 274 276 277 272 272 284 292 291 288 288 291 295 298 296 293 297 306 308 305 306 308 310 310 308 308 311 316 317 317 317 318 316 314
263 269 273 276 279 282 284 287 288 288 287 287 288 289 289 289 290 291 293 296 299 302 305 303 296 288 279 270 272 280 281 280 279 275 278 287 291 287 284 285 290 296 299 296 291 294 303 305 304 304 305 308 311 311 310 312 316 317 316 317 317 315 313
261 267 272 274 276 279 284 286 285 284 286 289 291 290 289 289 290 291 293 296 300 305 308 306 297 288 278 271 277 285 284 281 281 279 281 285 286 283 281 284 290 296 299 297 292 293 300 303 303 304 305 309 313 314 313 313 313 314 315 316 316 314 313
261 265 270 272 274 278 282 280 278 280 285 290 293 292 291 291 291 292 294 297 301 304 304 302 298 290 281 278 282 284 282 281 281 278 278 279 280 279 280 285 289 292 295 296 294 295 299 301 301 304 307 311 314 313 311 311 311 313 314 315 314 313 312
263 265 269 272 275 278 280 278 276 279 283 287 290 290 289 290 292 293 294 296 299 300 297 294 293 289 285 284 283 279 277 279 280 276 274 275 277 278 280 285 287 288 293 297 297 296 297 299 301 305 309 313 313 311 310 310 311 313 314 314 313 312 312
265 267 270 274 277 278 279 279 279 280 283 286 286 284 284 286 287 289 291 292 294 296 294 291 290 289 288 286 280 272 270 276 279 274 272 274 277 279 280 282 284 287 294 299 299 297 297 300 303 306 309 312 311 310 310 311 312 313 313 312 312 311 311
267 269 271 275 277 279 281 283 284 285 287 288 287 286 285 284 285 287 288 289 290 291 291 290 289 288 288 285 274 262 264 276 279 273 271 274 277 276 277 280 284 289 295 299 300 300 300 303 305 307 309 311 310 311 312 312 313 313 312 310 309 309 309
269 270 271 273 276 279 282 284 286 288 289 290 289 289 288 287 287 288 288 288 287 287 288 288 287 287 287 277 261 257 271 282 279 272 271 273 272 272 276 283 288 291 295 300 304 304 303 305 307 308 310 311 311 311 312 313 313 311 309 308 307 307 308
270 270 271 275 278 280 281 282 284 285 287 288 289 289 288 288 288 289 289 289 287 284 283 284 286 289 285 270 259 266 279 279 271 267 268 267 267 273 281 287 290 293 298 303 305 305 305 307 308 310 311 311 310 311 311 312 311 309 306 305 304 306 309
269 270 274 278 280 281 282 282 283 283 283 284 285 286 287 288 290 292 293 293 292 287 284 286 290 290 286 276 270 273 273 267 264 267 266 264 270 280 287 289 290 295 300 303 305 305 307 308 309 311 311 310 309 310 310 310 309 306 303 302 304 308 311
267 272 276 279 280 282 283 284 284 284 283 282 283 285 288 290 291 293 294 296 296 291 290 294 294 290 288 287 282 273 265 265 270 270 265 266 275 282 286 288 292 297 301 303 305 306 307 308 309 310 309 309 309 310 309 307 305 303 301 303 306 309 311
270 273 275 278 280 282 281 281 281 282 283 284 286 288 290 291 291 292 294 295 293 290 290 292 289 283 285 289 285 272 265 267 272 269 264 268 276 282 288 294 298 302 303 304 305 306 307 308 309 308 308 308 309 309 307 305 303 302 302 304 307 309 309
273 275 276 278 279 278 277 277 278 280 282 285 287 289 291 292 293 294 297 299 297 293 291 289 283 279 281 284 280 272 267 266 265 262 265 276 285 291 297 302 303 304 304 305 306 307 307 308 308 308 308 308 308 308 307 305 303 302 303 305 307 308 308
275 276 277 276 276 276 277 277 278 280 282 285 287 290 291 293 295 297 299 299 297 295 297 294 283 272 272 276 274 268 264 258 255 265 282 295 300 302 305 306 305 305 305 306 307 307 308 308 308 307 307 307 307 308 308 306 303 302 304 306 307 307 307
277 278 277 276 276 278 279 280 281 282 284 286 288 289 290 291 294 295 294 293 293 293 297 295 279 263 263 275 280 275 270 264 265 279 295 303 306 306 306 306 306 307 307 307 307 307 308 308 307 307 307 308 308 309 308 305 303 303 304 306 306 306 307
278 280 280 280 279 279 279 280 282 283 285 287 288 288 290 291 291 291 289 289 291 292 291 288 278 269 272 282 287 285 283 281 282 289 297 302 304 305 306 306 306 306 305 305 305 306 306 306 306 307 308 308 307 307 306 304 303 304 304 304 304 304 306